www.pogodaiklimat.ru

Погода и климат >> Архив погоды >> Великобритания >> Wick


ПОГОДА в Wick

  • Прогноз погоды в Wick
  • Монитор погоды в Wick
  • Климат города

АРХИВ ПОГОДЫ в Wick

Время (UTC), дата Ветер
(напр.,м/с)
 
Видим.   Явления Облачность Т
(С)
Тd
(С)
f
(%)
Тe
(С)
Тes
(С)
Комфортность P
(гПа)
Po
(гПа)
Тmin
(С)
Tmax
(С)
R
(мм)
R24
(мм)
S
(см)
03 10.07 ЮЗ 2 3200 м слаб. дождь н/о +12.2 +12.2 100 +11 +11 1027.4 1023.0
05 10.07 ЮЗ 2 8000 м в посл. час дождь н/о +12.4 +12.4 100 +11 +11 1027.0 1022.6
04 10.07 ЮЗ 2 2900 м в посл. час дождь н/о +12.2 +12.2 100 +11 +11 1027.2 1022.8
06 10.07 ЮЗ 2 4900 м дымка н/о +12.7 +12.7 100 +12 +12 1026.9 1022.5 +12.1 2
07 10.07 З 2 3000 м в посл. час дождь н/о +12.9 +12.9 100 +12 +12 1027.1 1022.7
08 10.07 З 2 2500 м дымка н/о +13.3 +13.2 99 +12 +12 1026.9 1022.5
09 10.07 СЗ 3 4200 м дымка н/о +13.7 +13.7 100 +13 +13 1026.9 1022.5
11 10.07 С 2 24 км н/о +14.5 +14.1 97 +14 +14 1026.6 1022.2
10 10.07 СЗ 3 4300 м дымка н/о +14.4 +14.1 98 +13 +13 1026.7 1022.4
12 10.07 С 1 19 км н/о +14.4 +13.9 97 +15 +15 1026.4 1022.1 0.6
13 10.07 В 2 3700 м в посл. час дождь н/о +13.7 +13.4 98 +13 +13 1026.4 1022.0
14 10.07 В 2 5000 м дымка н/о +13.8 +13.5 98 +13 +13 1026.3 1021.9
15 10.07 В 3 7000 м дымка н/о +13.8 +13.5 98 +13 +13 1026.2 1021.8
17 10.07 В 3 7000 м дымка н/о +13.5 +13.3 99 +12 +12 1025.7 1021.3
16 10.07 В 3 24 км н/о +13.8 +13.5 98 +13 +13 1025.8 1021.5
18 10.07 В 1 5000 м дымка н/о +13.1 +12.9 99 +13 +13 1025.8 1021.4 +14.6 1
19 10.07 С 2 3400 м дымка н/о +13.3 +13.1 99 +12 +12 1025.8 1021.4
20 10.07 СЗ 2 4000 м дымка н/о +13.1 +12.9 99 +12 +12 1025.7 1021.3
21 10.07 СЗ 2 2500 м дымка н/о +12.7 +12.6 99 +12 +12 1025.7 1021.3
23 10.07 З 2 2300 м дымка н/о +12.5 +12.5 100 +11 +11 1025.6 1021.2
22 10.07 СЗ 2 3000 м дымка н/о +12.6 +12.6 100 +12 +12 1025.9 1021.5
00 11.07 З 2 3100 м дымка н/о +12.3 +12.3 100 +11 +11 1025.3 1020.9 0.6
01 11.07 З 2 3300 м дымка н/о +12.4 +12.3 99 +11 +11 1024.9 1020.5
02 11.07 З 2 3400 м дымка н/о +12.4 +12.3 99 +11 +11 1024.8 1020.4
03 11.07 СЗ 3 6000 м дымка н/о +12.4 +12.4 100 +11 +11 1024.6 1020.2
05 11.07 СЗ 3 5000 м дымка н/о +12.3 +12.3 100 +11 +11 1024.4 1020.0
04 11.07 СЗ 3 8000 м дымка н/о +12.3 +12.3 100 +11 +11 1024.5 1020.1
06 11.07 СЗ 4 8000 м дымка н/о +12.4 +12.4 100 +10 +10 1024.4 1020.0 +12.3 0.8
07 11.07 СЗ 4 8000 м дымка н/о +12.6 +12.6 100 +11 +11 1024.6 1020.2
08 11.07 СЗ 3 13 км н/о +12.8 +12.8 100 +11 +11 1024.5 1020.1
09 11.07 СЗ 4 6000 м дымка н/о +13.0 +12.8 99 +11 +11 1024.5 1020.2
11 11.07 СЗ 5 5000 м дымка н/о +13.5 +13.0 97 +12 +12 1024.4 1020.1
10 11.07 С 3 4500 м в посл. час дождь н/о +13.1 +12.7 97 +12 +12 1024.5 1020.2
12 11.07 СЗ 5 35 км н/о +14.2 +12.9 92 +12 +12 1024.4 1020.1 0.0
13 11.07 СЗ 5 50 км н/о +14.2 +12.6 90 +13 +13 1024.3 1019.9
14 11.07 СЗ 5 40 км н/о +14.1 +12.3 89 +12 +12 1024.2 1019.8
15 11.07 СЗ 6 40 км н/о +14.1 +12.2 88 +12 +12 1024.2 1019.8
17 11.07 СЗ 6 45 км н/о +13.3 +11.8 91 +11 +11 1024.1 1019.7
16 11.07 СЗ 6 50 км н/о +13.9 +12.1 89 +12 +12 1024.2 1019.8
18 11.07 СЗ 6 35 км н/о +13.1 +11.8 92 +11 +11 1024.1 1019.7 +14.6 0.0
19 11.07 СЗ 4 50 км н/о +12.6 +11.6 94 +11 +11 1024.3 1019.9
20 11.07 СЗ 4 40 км н/о +12.2 +11.2 94 +10 +10 1024.2 1019.8
21 11.07 СЗ 4 40 км н/о +11.9 +11.2 95 +10 +10 1024.4 1020.0
23 11.07 СЗ 3 6000 м дымка н/о +11.6 +11.5 99 +10 +10 1024.5 1020.1
22 11.07 СЗ 4 7000 м дымка н/о +11.8 +11.3 97 +10 +10 1024.4 1020.0
00 12.07 СЗ 4 2700 м дымка н/о +11.7 +11.7 100 +9 +9 1024.4 1020.0 0.4
01 12.07 СЗ 4 2000 м слаб. морось н/о +11.7 +11.7 100 +9 +9 1024.3 1019.9
02 12.07 СЗ 5 7000 м в посл. час морось н/о +11.6 +11.6 100 +9 +9 1023.9 1019.5
03 12.07 СЗ 4 8000 м дымка н/о +11.6 +11.6 100 +9 +9 1023.8 1019.4
05 12.07 СЗ 4 3500 м дымка н/о +11.9 +11.9 100 +10 +10 1023.8 1019.4
04 12.07 СЗ 4 9000 м дымка н/о +11.7 +11.7 100 +9 +9 1023.7 1019.3
06 12.07 СЗ 4 10 км дымка н/о +12.1 +12.0 99 +10 +10 1024.0 1019.6 +11.6 1
07 12.07 СЗ 4 18 км н/о +12.5 +11.9 96 +10 +10 1024.1 1019.7
08 12.07 С 4 15 км н/о +13.4 +12.0 91 +12 +12 1024.1 1019.7
09 12.07 С 4 40 км н/о +13.4 +11.9 91 +12 +12 1024.2 1019.8
11 12.07 С 4 35 км н/о +13.6 +11.2 85 +12 +12 1024.3 1019.9
10 12.07 С 4 40 км н/о +13.6 +11.9 89 +12 +12 1024.2 1019.8
12 12.07 СВ 3 8000 м дым н/о +13.9 +11.9 88 +13 +13 1024.4 1020.0
13 12.07 СВ 3 30 км н/о +15.0 +11.7 81 +14 +14 1024.1 1019.8
14 12.07 В 2 16 км н/о +13.6 +11.2 85 +13 +13 1024.2 1019.8
15 12.07 СВ 3 30 км н/о +13.7 +11.8 88 +13 +13 1024.1 1019.7
17 12.07 ЮВ 2 27 км н/о +13.8 +11.3 85 +13 +13 1023.6 1019.3
16 12.07 В 2 45 км н/о +14.1 +11.3 83 +14 +14 1023.8 1019.4
18 12.07 ЮВ 2 30 км н/о +13.9 +11.3 84 +14 +14 1023.6 1019.3 +15.1
19 12.07 ЮВ 1 35 км н/о +13.7 +10.8 83 +14 +14 1023.7 1019.3
20 12.07 В 1 40 км н/о +13.8 +11.0 83 +15 +15 1023.7 1019.4
21 12.07 Ю 1 28 км н/о +12.9 +10.6 86 +13 +13 1023.8 1019.4
23 12.07 ЮЗ 2 18 км н/о +11.5 +10.5 94 +11 +11 1023.7 1019.3
22 12.07 Ю 1 35 км н/о +12.8 +10.7 87 +13 +13 1023.8 1019.4
00 13.07 З 2 700 м туман н/о +10.0 +9.3 95 +9 +9 1023.7 1019.3
01 13.07 ЮЗ 2 16 км в посл. час туман н/о +10.1 +10.0 99 +9 +9 1023.4 1018.9
02 13.07 ЮЗ 2 7000 м дымка н/о +8.7 +8.4 98 +7 +7 1023.2 1018.7
03 13.07 ЮЗ 2 500 м туман н/о +7.5 +7.3 99 +6 +6 1022.9 1018.5
05 13.07 СЗ 1 800 м туман н/о +7.7 +7.7 100 +8 +8 1022.3 1017.8
04 13.07 ЮЗ 1 13 км в посл. час туман н/о +8.3 +8.3 100 +7 +7 1022.6 1018.2
06 13.07 ЮВ 2 22 км в посл. час туман н/о +12.0 +12.0 100 +11 +11 1022.2 1017.8 +6.8
07 13.07 ЮВ 3 16 км н/о +13.6 +12.6 94 +13 +13 1022.2 1017.8
08 13.07 ЮВ 4 27 км н/о +14.3 +12.0 86 +13 +13 1022.1 1017.7
09 13.07 ЮВ 5 35 км н/о +14.3 +11.9 85 +13 +13 1021.8 1017.4
11 13.07 ЮВ 4 45 км н/о +14.4 +11.0 80 +13 +13 1021.6 1017.3
10 13.07 ЮВ 4 25 км н/о +15.0 +11.5 80 +14 +14 1021.6 1017.2
12 13.07 ЮВ 5 20 км н/о +15.0 +11.9 82 +14 +14 1021.2 1016.8
13 13.07 ЮВ 5 20 км н/о +15.4 +11.9 80 +14 +14 1020.9 1016.6
14 13.07 ЮВ 5 27 км н/о +15.9 +12.3 79 +15 +15 1020.6 1016.2
15 13.07 ЮВ 4 20 км н/о +15.6 +12.5 82 +15 +15 1020.2 1015.9
17 13.07 ЮВ 3 40 км н/о +16.2 +12.7 80 +16 +16 1019.3 1015.0
16 13.07 ЮВ 5 35 км н/о +15.5 +12.8 84 +14 +14 1019.7 1015.4
18 13.07 Ю 3 45 км н/о +15.9 +12.4 80 +15 +15 1019.0 1014.6 +16.5
19 13.07 Ю 3 30 км н/о +16.1 +12.3 78 +16 +16 1018.6 1014.3
20 13.07 Ю 3 50 км н/о +16.1 +12.1 77 +16 +16 1018.6 1014.3
21 13.07 Ю 2 45 км н/о +15.8 +12.0 78 +16 +16 1018.5 1014.2
23 13.07 ЮВ 1 30 км н/о +14.0 +11.6 85 +14 +14 1018.0 1013.7
22 13.07 ЮЗ 1 40 км н/о +15.1 +12.1 82 +16 +16 1018.4 1014.1
00 14.07 Ю 2 40 км н/о +14.3 +11.4 83 +14 +14 1017.6 1013.3
01 14.07 Ю 2 50 км н/о +13.6 +11.3 86 +13 +13 1017.4 1013.0
02 14.07 Ю 2 50 км н/о +13.2 +11.2 88 +12 +12 1016.6 1012.3
03 14.07 Ю 3 24 км н/о +12.9 +11.8 93 +12 +12 1016.5 1012.2
05 14.07 ЮЗ 3 45 км н/о +13.7 +12.4 92 +12 +12 1015.4 1011.0
04 14.07 Ю 3 9000 м дымка н/о +13.8 +13.6 99 +13 +13 1015.8 1011.5
06 14.07 ЮЗ 3 30 км н/о +14.1 +12.1 88 +13 +13 1015.2 1010.8 +12.7
07 14.07 ЮЗ 6 40 км н/о +15.8 +11.6 76 +14 +14 1014.7 1010.4
08 14.07 Ю 6 50 км н/о +16.4 +11.8 74 +15 +15 1014.8 1010.5
09 14.07 Ю 6 45 км н/о +17.0 +12.0 72 +16 +16 1014.4 1010.1
11 14.07 Ю 8 23 км н/о +19.2 +11.8 62 +20 +20 1013.8 1009.5
10 14.07 Ю 5 30 км н/о +16.7 +12.8 78 +16 +16 1013.9 1009.7
12 14.07 Ю 7 28 км н/о +18.4 +12.0 66 +18 +18 1013.5 1009.2
13 14.07 Ю 5 4000 м слаб. ливневой дождь н/о +15.6 +13.8 89 +14 +14 1013.7 1009.4
14 14.07 Ю 4 8000 м ливневой дождь н/о +15.9 +14.4 91 +15 +15 1013.3 1009.0
15 14.07 ЮВ 3 3300 м дождь н/о +14.1 +13.4 96 +13 +13 1013.3 1008.9
17 14.07 Ю 3 14 км слаб. дождь н/о +15.6 +15.1 97 +15 +15 1012.5 1008.2
16 14.07 Ю 4 6000 м дождь н/о +15.8 +15.2 96 +15 +15 1012.9 1008.6
18 14.07 ЮВ 4 13 км слаб. морось с дождем н/о +14.7 +14.6 99 +13 +13 1012.4 1008.1 +20.0 13
19 14.07 ЮВ 3 27 км в посл. час дождь н/о +15.3 +14.9 97 +15 +15 1012.0 1007.7
20 14.07 Ю 3 35 км н/о +15.4 +14.2 93 +15 +15 1011.7 1007.4
21 14.07 Ю 3 40 км н/о +16.1 +14.3 89 +16 +16 1011.8 1007.5
23 14.07 Ю 4 50 км в посл. час дождь н/о +16.6 +14.4 87 +16 +16 1011.7 1007.5
22 14.07 Ю 4 50 км в посл. час дождь н/о +16.6 +14.4 87 +16 +16 1011.9 1007.6
00 15.07 Ю 5 25 км слаб. ливневой дождь н/о +16.5 +15.0 91 +16 +16 1011.5 1007.2 0.0
01 15.07 Ю 6 35 км слаб. ливневой дождь н/о +16.3 +15.4 94 +15 +15 1011.4 1007.1
02 15.07 Ю 6 18 км слаб. ливневой дождь н/о +16.4 +15.3 93 +15 +15 1011.0 1006.8
03 15.07 Ю 5 45 км в посл. час дождь н/о +16.5 +15.2 92 +16 +16 1010.8 1006.5
05 15.07 Ю 5 30 км в посл. час дождь н/о +15.9 +15.2 96 +15 +15 1010.5 1006.2
04 15.07 Ю 4 11 км слаб. ливневой дождь н/о +16.1 +15.5 96 +15 +15 1010.5 1006.2
06 15.07 ЮВ 3 16 км слаб. ливневой дождь н/о +15.7 +14.7 94 +15 +15 1010.7 1006.4 +14.6 3
07 15.07 Ю 3 35 км в посл. час дождь н/о +17.6 +16.2 91 +18 +18 1010.8 1006.6
08 15.07 Ю 3 35 км н/о +18.4 +16.2 87 +19 +19 1010.8 1006.6
09 15.07 Ю 5 45 км н/о +19.1 +16.2 83 +20 +20 1010.8 1006.6
11 15.07 Ю 6 30 км н/о +21.1 +16.8 76 +25 +25 комфорт 1010.8 1006.6
10 15.07 Ю 4 40 км н/о +19.4 +16.4 83 +21 +21 комфорт 1010.8 1006.5
12 15.07 ЮВ 4 28 км н/о +20.0 +16.4 80 +23 +23 комфорт 1010.7 1006.5 0.0
13 15.07 ЮВ 4 30 км н/о +18.2 +15.1 82 +18 +18 1010.7 1006.5
14 15.07 Ю 3 10 км слаб. ливневой дождь н/о +17.3 +15.7 90 +17 +17 1010.9 1006.6
15 15.07 Ю 3 18 км в посл. час дождь н/о +17.7 +16.5 93 +18 +18 1010.7 1006.5
17 15.07 ЮВ 3 21 км слаб. морось с дождем н/о +16.7 +16.0 96 +17 +17 1010.4 1006.1
16 15.07 ЮВ 3 8000 м слаб. ливневой дождь н/о +16.7 +16.0 96 +16 +16 1010.6 1006.3
18 15.07 ЮВ 2 30 км слаб. морось с дождем н/о +17.3 +16.4 94 +18 +18 1010.2 1005.9 +21.9 1
19 15.07 ЮВ 3 20 км слаб. дождь н/о +16.9 +16.4 97 +17 +17 1009.9 1005.6
20 15.07 ЮВ 3 35 км в посл. час дождь н/о +16.8 +15.8 94 +17 +17 1009.7 1005.5
21 15.07 ЮВ 3 25 км н/о +16.1 +15.1 94 +16 +16 1009.8 1005.5
23 15.07 Ю 2 18 км н/о +16.5 +15.1 91 +17 +17 1009.3 1005.0
22 15.07 Ю 2 23 км н/о +16.4 +15.1 92 +17 +17 1009.6 1005.4
00 16.07 ЮВ 3 10 км н/о +16.0 +14.8 93 +16 +16 1009.0 1004.7 1
01 16.07 Ю 3 16 км н/о +16.3 +15.3 94 +16 +16 1008.9 1004.6

 

Местоположение метеостанции Wick (Великобритания): широта 58.45 долгота -3.08 высота над уровнем моря 36 м.

В архиве по умолчанию представлена погода в Wick за последнюю неделю. Архивные данные за месяц целиком и за предыдущие месяцы, начиная с января 2011 года, Вы можете получить, выбрав интересующий диапазон дат из раскрывающегося списка и нажав кнопку "Ввод!".


*Определитесь, кто Вы:
робот инопланетянин человек

Внимание! Время в таблицах - всемирное. Для получения местного времени необходимо прибавить поправку, которая в Wick равна 0 ч.

Смотрите также архив погоды в соседних городах и на ближайших метеорологических станциях:

Погода в Kirkwall (Великобритания) (57 км)
Погода в Altnaharra (Великобритания) (81 км)
Погода в Lossiemouth (Великобритания) (82 км)
Погода в Tain Range (Великобритания) (87 км)
Погода в Kinloss (Великобритания) (94 км)
Погода в Sule Skerry (Великобритания) (103 км)
Погода в Loch Glascarnoch (Великобритания) (133 км)
Погода в Aviemore (Великобритания) (146 км)
Погода в Fair Isle (Великобритания) (146 км)
Погода в Aberdeen (Великобритания) (148 км)

Пояснения к столбцам:

Ветер - указаны скорость ветра в м/с - средняя за 10 мин, порывы в срок и между сроками (в фигурных скобках) и направление, откуда дует ветер: С - северный, СВ - северо-восточный, В - восточный, ЮВ - юго-восточный, Ю - южный, ЮЗ - юго-западный, З - западный, СЗ - северо-западный.
Видимость - горизонтальная дальность видимости в метрах или километрах. При видимости от 1 до 10 км при отсутствии осадков обычно наблюдается дымка, при ухудшении видимости до 1 км и менее - туман. В сухую погоду видимость может ухудшаться дымом, пылью или мглою.
Явления - указаны атмосферные явления, наблюдавшиеся в срок или в последний час перед сроком; фигурными скобками обозначены явления, наблюдавшиеся между сроками (за 1-3 часа до срока); квадратными скобками обозначены град или гололедные отложения с указанием их диаметра в мм.
Облачность - указаны через наклонную черту общая и нижняя облачность в баллах и высота нижней границы облаков в метрах; квадратными скобками обозначены формы облаков: Ci - перистые, Cs - перисто-слоистые, Cc - перисто-кучевые, Ac - высококучевые, As - высокослоистые, Sc - слоисто-кучевые, Ns - слоисто-дождевые, Cu - кучевые, Cb - кучево-дождевые. Подробнее классификацию облаков см. в Атласе облаков (PDF).
T - Температура воздуха - температура, измеренная на высоте 2 м над землей.
Td - Температура точки росы - температура, при понижении до которой содержащийся в воздухе водяной пар достигнет насыщения.
f - Относительная влажность воздуха - влажноcть воздуха, измеренная на высоте 2 м над землей.
Te - Эффективная температура - температура, которую ощущает одетый по сезону человек в тени. Характеристика душности погоды. При расчете учитывается влияние влажности воздуха и скорости ветра на теплоощущения человека.
Tes - Эффективная температура на солнце - температура, которую ощущает человек, с поправкой на солнечный нагрев. Характеристика знойности погоды. Зависит от высоты солнца над горизонтом, облачности и скорости ветра. Ночью, в пасмурную погоду, а также при ветре 12 м/с и более поправка равна нулю.
P - Атмосферное давление - приведенное к уровню моря атмосферное давление.
Po - Атмосферное давление - измеренное на уровне метеостанции атмосферное давление.
Tmin - Минимальная температура - минимум температуры воздуха на высоте 2 м над землей.
Tmax - Максимальная температура - максимум температуры воздуха на высоте 2 м над землей.
R - Количество осадков - Количество выпавших осадков за период времени, мм. При наведении курсора мыши на число - период времени, за который выпало указанное количество осадков.
R24 - Количество осадков - Количество выпавших осадков за 24 часа, мм.
S - Снежный покров - Высота снежного покрова, см. При наведении курсора мыши на число - состояние снежного покрова и степень покрытия местности в баллах.